Date String (YYYY-MM-DD hh:mm:ss) UTC,Instrument flags,absolute air pressure of the measurement (hPa),sample flow rate (lpm),inlet stack bypass flow (lpm),air temperature of the measurement (°C),ambient temperature measured by the external sensor (°C),aerosol sample conditioner tube jacket temperature (°C),OPC LED temperature (°C),internal box temperature (°C),relative humidity of the measurement (%),span deviation,mass concentration of particles derived from Lorenz-Mie calculation of OPC scattering (μg/m³),mass concentration of particles derived from Lorenz-Mie calculation of OPC scattering (μg/m³),mass concentration of particles derived from Lorenz-Mie calculation of OPC scattering (μg/m³)
DateTimeUTC,F1_M11,P_M11,Q1_M11,Q2_M11,T1_M11,T2_M11,T3_M11,T4_M11,T5_M11,U1_M11,ZSPAN_M11,X0_M11,X2_M11,X1_M11
2023-12-02 05:00:00,SystemResetWarning,0820.2,5.00,000.00,019.4,018.6,000.0,027.8,020.7,11.0,0002.2,0017.03,0010.79,0009.83
2023-12-02 05:01:00,SystemResetWarning,0820.0,5.00,000.00,019.4,018.6,000.0,027.8,020.7,13.5,0002.1,0017.22,0010.75,0009.80
2023-12-02 05:02:00,SystemResetWarning,0820.1,4.99,000.00,019.5,018.6,000.0,027.8,020.8,13.9,0001.5,0016.23,0009.98,0009.10
2023-12-02 05:03:00,SystemResetWarning,0820.1,5.00,000.00,019.5,018.6,000.0,027.8,020.8,14.5,0001.5,0015.10,0009.14,0008.33
2023-12-02 05:04:00,SystemResetWarning,0820.1,5.00,000.00,019.5,018.6,000.0,027.8,020.7,13.6,0000.2,0013.74,0008.25,0007.53
2023-12-02 05:05:00,SystemResetWarning,0820.1,5.01,000.00,019.4,018.6,000.0,027.8,020.7,12.0,0000.0,0012.44,0007.38,0006.77
2023-12-02 05:06:00,SystemResetWarning,0820.1,5.00,000.00,019.4,018.6,000.0,027.8,020.7,11.8,0000.0,0011.43,0006.80,0006.25
2023-12-02 05:07:00,SystemResetWarning,0820.1,5.00,000.00,019.4,018.6,000.0,027.8,020.7,12.1,0000.0,0011.00,0006.44,0005.92
2023-12-02 05:08:00,SystemResetWarning,0820.1,5.00,000.00,019.5,018.6,000.0,027.8,020.7,12.1,0000.0,0010.75,0006.46,0005.93
2023-12-02 05:09:00,SystemResetWarning,0820.1,5.00,000.00,019.5,018.6,000.0,027.8,020.7,11.7,0000.0,0010.09,0006.34,0005.84
2023-12-02 05:10:00,SystemResetWarning,0820.1,5.01,000.00,019.5,018.6,000.0,027.8,020.7,11.1,0000.0,0010.20,0006.47,0005.94
2023-12-02 05:11:00,SystemResetWarning,0820.0,5.00,000.00,019.5,018.6,000.0,027.8,020.7,11.1,0000.0,0010.72,0006.86,0006.30
2023-12-02 05:12:00,SystemResetWarning,0820.1,5.00,000.00,019.5,018.7,000.0,027.8,020.7,11.5,0000.0,0010.81,0007.04,0006.45
2023-12-02 05:13:00,SystemResetWarning,0820.0,5.00,000.00,019.5,018.7,000.0,027.8,020.7,11.0,0000.0,0011.10,0007.24,0006.64
2023-12-02 05:14:00,SystemResetWarning,0820.0,5.00,000.00,019.5,018.7,000.0,027.8,020.8,11.0,0000.0,0011.73,0007.56,0006.90
2023-12-02 05:15:00,SystemResetWarning,0820.0,5.00,000.00,019.5,018.7,000.0,027.8,020.7,11.0,0000.0,0011.88,0007.77,0007.12
2023-12-02 05:16:00,SystemResetWarning,0820.0,5.00,000.00,019.5,018.7,000.0,027.8,020.7,11.0,0000.0,0012.13,0007.98,0007.30
2023-12-02 05:17:00,SystemResetWarning,0820.0,5.00,000.00,019.5,018.7,000.0,027.8,020.7,11.1,0000.0,0012.19,0008.04,0007.35
2023-12-02 05:18:00,SystemResetWarning,0820.0,5.00,000.00,019.5,018.7,000.0,027.8,020.7,11.0,0000.0,0012.18,0008.05,0007.37
2023-12-02 05:19:00,SystemResetWarning,0820.0,5.00,000.00,019.5,018.7,000.0,027.8,020.7,11.0,0000.0,0011.61,0007.78,0007.15
2023-12-02 05:20:00,SystemResetWarning,0820.0,5.00,000.00,019.5,018.7,000.0,027.8,020.8,11.0,0000.0,0010.59,0007.02,0006.45
2023-12-02 05:21:00,SystemResetWarning,0820.0,4.99,000.00,019.5,018.7,000.0,027.8,020.8,10.7,0000.0,0009.76,0006.33,0005.85
2023-12-02 05:22:00,SystemResetWarning,0820.0,5.00,000.00,019.5,018.7,000.0,027.8,020.8,10.6,0000.0,0008.84,0005.59,0005.17
2023-12-02 05:23:00,SystemResetWarning,0820.0,4.99,000.00,019.5,018.7,000.0,027.8,020.8,10.4,0000.0,0008.55,0005.36,0004.94
2023-12-02 05:24:00,SystemResetWarning,0820.1,5.00,000.00,019.5,018.7,000.0,027.8,020.8,10.1,0000.0,0008.50,0005.31,0004.91
2023-12-02 05:25:00,SystemResetWarning,0820.0,5.01,000.00,019.5,018.7,000.0,027.8,020.8,10.2,0000.0,0007.75,0005.04,0004.72
2023-12-02 05:26:00,SystemResetWarning,0820.0,5.01,000.00,019.5,018.7,000.0,027.8,020.8,10.1,0000.0,0007.48,0004.82,0004.52
2023-12-02 05:27:00,SystemResetWarning,0820.0,5.00,000.00,019.5,018.7,000.0,027.8,020.8,10.1,0000.0,0008.08,0004.61,0004.33
2023-12-02 05:28:00,SystemResetWarning,0820.1,4.99,000.00,019.5,018.7,000.0,027.8,020.8,10.0,0000.0,0008.85,0004.54,0004.26
2023-12-02 05:29:00,SystemResetWarning,0820.1,4.99,000.00,019.5,018.7,000.0,027.8,020.7,9.9,0000.0,0008.73,0004.43,0004.17
2023-12-02 05:30:00,SystemResetWarning,0820.2,4.99,000.00,019.5,018.7,000.0,027.8,020.7,9.8,0000.0,0008.41,0004.17,0003.94
2023-12-02 05:31:00,SystemResetWarning,0820.1,5.00,000.00,019.5,018.7,000.0,027.8,020.8,9.7,0000.0,0008.10,0003.95,0003.74
2023-12-02 05:32:00,SystemResetWarning,0820.1,5.01,000.00,019.5,018.7,000.0,027.8,020.7,9.7,0000.0,0007.95,0003.80,0003.59
2023-12-02 05:33:00,SystemResetWarning,0820.0,5.01,000.00,019.5,018.6,000.0,027.8,020.7,9.6,0000.0,0007.71,0003.60,0003.41
2023-12-02 05:34:00,SystemResetWarning,0820.0,5.01,000.00,019.5,018.6,000.0,027.8,020.7,9.5,0000.0,0007.38,0003.37,0003.22
2023-12-02 05:35:00,SystemResetWarning,0819.9,5.00,000.00,019.5,018.6,000.0,027.8,020.7,9.6,0000.0,0006.84,0003.11,0002.92
2023-12-02 05:36:00,SystemResetWarning,0820.1,4.99,000.00,019.5,018.6,000.0,027.8,020.7,9.5,0000.0,0006.47,0002.80,0002.56
2023-12-02 05:37:00,SystemResetWarning,0820.1,4.99,000.00,019.5,018.7,000.0,027.8,020.7,9.5,0000.0,0006.07,0002.45,0002.22
2023-12-02 05:38:00,SystemResetWarning,0820.1,5.00,000.00,019.5,018.7,000.0,027.8,020.7,9.4,0000.0,0004.15,0002.07,0001.87
2023-12-02 05:39:00,SystemResetWarning,0820.0,5.00,000.00,019.5,018.6,000.0,027.8,020.7,10.6,0000.0,0002.21,0001.80,0001.63
2023-12-02 05:40:00,SystemResetWarning,0820.0,5.00,000.00,019.5,018.6,000.0,027.8,020.7,10.6,0000.0,0001.98,0001.59,0001.43
2023-12-02 05:41:00,SystemResetWarning,0820.1,5.00,000.00,019.5,018.6,000.0,027.8,020.7,10.4,0000.0,0001.86,0001.47,0001.30
2023-12-02 05:42:00,SystemResetWarning,0820.1,5.00,000.00,019.4,018.6,000.0,027.8,020.7,10.2,0000.0,0001.85,0001.41,0001.23
2023-12-02 05:43:00,SystemResetWarning,0819.9,5.00,000.00,019.4,018.6,000.0,027.8,020.7,10.2,0000.0,0001.65,0001.30,0001.15
2023-12-02 05:44:00,SystemResetWarning,0820.0,5.00,000.00,019.4,018.6,000.0,027.8,020.7,9.9,0000.0,0001.49,0001.22,0001.09
2023-12-02 05:45:00,SystemResetWarning,0820.2,5.00,000.00,019.4,018.6,000.0,027.8,020.7,9.8,0000.0,0001.48,0001.21,0001.08
2023-12-02 05:46:00,SystemResetWarning,0820.1,5.00,000.00,019.5,018.6,000.0,027.8,020.7,10.0,0000.0,0001.98,0001.63,0001.48
2023-12-02 05:47:00,SystemResetWarning,0820.1,5.00,000.00,019.5,018.6,000.0,027.8,020.7,10.1,0000.0,0002.35,0001.93,0001.76
2023-12-02 05:48:00,SystemResetWarning,0820.0,5.00,000.00,019.5,018.6,000.0,027.8,020.7,10.2,0000.0,0002.60,0002.13,0001.94
2023-12-02 05:49:00,SystemResetWarning,0820.1,5.00,000.00,019.5,018.6,000.0,027.8,020.7,10.7,0000.0,0002.76,0002.28,0002.09
2023-12-02 05:50:00,SystemResetWarning,0820.1,5.00,000.00,019.5,018.7,000.0,027.8,020.7,11.6,0000.0,0003.59,0002.38,0002.21
2023-12-02 05:51:00,SystemResetWarning,0820.1,5.00,000.00,019.5,018.7,000.0,027.8,020.7,11.7,0000.0,0004.24,0002.44,0002.27
2023-12-02 05:52:00,SystemResetWarning,0820.2,5.00,000.00,019.5,018.7,000.0,027.8,020.7,12.4,0000.0,0004.25,0002.47,0002.30
2023-12-02 05:53:00,SystemResetWarning,0820.2,5.00,000.00,019.5,018.6,000.0,027.8,020.6,12.8,0000.0,0004.50,0002.55,0002.38
2023-12-02 05:54:00,SystemResetWarning,0820.3,5.00,000.00,019.5,018.6,000.0,027.8,020.6,13.6,0000.0,0005.09,0002.65,0002.47
2023-12-02 05:55:00,SystemResetWarning,0820.1,5.00,000.00,019.4,018.6,000.0,027.8,020.6,12.9,0000.0,0005.26,0002.79,0002.60
2023-12-02 05:56:00,SystemResetWarning,0820.0,5.00,000.00,019.4,018.5,000.0,027.8,020.6,12.2,0000.0,0005.72,0003.09,0002.86
2023-12-02 05:57:00,SystemResetWarning,0820.0,5.00,000.00,019.4,018.5,000.0,027.8,020.6,11.3,0000.0,0006.79,0003.26,0003.10
2023-12-02 05:58:00,SystemResetWarning,0820.2,5.00,000.00,019.4,018.5,000.0,027.8,020.6,10.8,0000.0,0007.06,0003.38,0003.22
2023-12-02 05:59:00,SystemResetWarning,0820.0,5.00,000.00,019.4,018.6,000.0,027.8,020.6,10.9,0000.0,0008.33,0003.73,0003.54
